Location: Unspecified
(43.4354°N, 0.0000°E)
Time: 15:18:54
(UTC+00:00)

A-11 Canister half - Pass Details

Date: 21 June 2019
Orbit: 1514 x 1686 km, 47.2° (Epoch: 19 August)

Event Time Altitude Azimuth Distance (km) Brightness Sun altitude
Rises 16:00:09 0° 292° (WNW) 4,802 12.4 37.6°
Reaches altitude 10° 16:03:17 10° 292° (WNW) 3,792 12.1 37.1°
Maximum altitude 16:12:52 80° 207° (SSW) 1,568 9.8 35.3°
Drops below altitude 10° 16:22:08 10° 122° (ESE) 3,677 10.7 33.7°
Sets 16:25:08 0° 122° (ESE) 4,650 11.1 33.1°
